Retour au catalogue

STARLINK-37059

ActifCommunicationsVLEO
NORAD 68088·PAYLOAD·🇺🇸 United States

Lancé Mar 4, 2026 depuis Vandenberg Space Force Base

Loading…

Prochains Passages (prochaines 24 heures)

TLE

FraisSource: CelesTrak SupGP

Époque: Sep 15, 2026, 03:22 UTC

1 68088C 26042V   26258.14076389  .00058079  00000+0  17148-2 0  2584
2 68088  53.1602  14.8864 0001208  72.8762 350.9512 15.34382921    17

Suivez STARLINK-37059 en temps réel avec AllMySat

Download on the App Store